CW8630 Weather Reports


time (UTC)temp
C
wind
direction
speed
KPH
gust
KPH
rain 1hr
cm
rain 24hr
cm
rain mn
cm
humidity
%
barometer
mb
20260506034055 10 340 4.8 11.3 0.00 0.00 0.00 52 1010.3
20260506033553 10 20 4.8 11.3 0.00 0.00 0.00 51 1010.3
20260506033053 10 1 4.8 12.9 0.00 0.00 0.00 51 1010.4
20260506032554 10 334 4.8 12.9 0.00 0.00 0.00 51 1010.4
20260506031548 10 334 4.8 12.9 0.00 0.00 0.00 52 1010.1
20260506031050 10 348 4.8 11.3 0.00 0.00 0.00 52 1010.0
20260506030547 10 330 4.8 9.7 0.00 0.00 0.00 52 1009.9
20260506030048 10 330 4.8 9.7 0.00 0.00 0.00 52 1009.8
20260506025548 10 1 3.2 9.7 0.00 0.00 0.00 53 1009.8
20260506025047 10 46 3.2 6.4 0.00 0.00 0.00 54 1009.7
20260506024046 10 336 3.2 6.4 0.00 0.00 0.00 53 1009.4
20260506023543 10 319 3.2 6.4 0.00 0.00 0.00 53 1009.5
20260506023044 10 318 3.2 6.4 0.00 0.00 0.00 53 1009.6
20260506022542 10 327 3.2 6.4 0.00 0.00 0.00 53 1009.6
20260506022043 10 305 3.2 8.0 0.00 0.00 0.00 52 1009.5
20260506021041 10 292 4.8 9.7 0.00 0.00 0.00 52 1009.3
20260506020541 10 296 3.2 8.0 0.00 0.00 0.00 52 1009.3
20260506020035 11 305 3.2 6.4 0.00 0.00 0.00 52 1009.3
20260506015530 11 310 3.2 6.4 0.00 0.00 0.00 51 1009.0
20260506015024 11 317 3.2 8.0 0.00 0.00 0.00 51 1009.0
20260506014518 11 303 3.2 9.7 0.00 0.00 0.00 50 1009.0
20260506012959 11 314 3.2 6.4 0.00 0.00 0.00 49 1008.8
20260506012455 11 303 3.2 6.4 0.00 0.00 0.00 48 1008.4
20260506011947 11 324 3.2 6.4 0.00 0.00 0.00 48 1008.5
20260506010429 11 314 3.2 8.0 0.00 0.00 0.00 47 1008.3
20260506005925 11 296 4.8 9.7 0.00 0.00 0.00 46 1008.6
20260506005417 11 325 4.8 11.3 0.00 0.00 0.00 46 1008.2
20260506004913 11 1 4.8 12.9 0.00 0.00 0.00 46 1008.3
20260506004406 11 1 4.8 12.9 0.00 0.00 0.00 45 1008.2
20260506003355 11 354 3.2 11.3 0.00 0.00 0.00 47 1008.0
20260506002848 12 350 4.8 11.3 0.00 0.00 0.00 47 1008.0
20260506001836 12 315 8.0 17.7 0.00 0.00 0.00 44 1007.9
20260506001329 12 296 6.4 17.7 0.00 0.00 0.00 45 1007.9
20260506000823 12 291 6.4 19.3 0.00 0.00 0.00 45 1007.9
20260506000317 12 310 6.4 19.3 0.00 0.00 0.00 45 1008.0
20260505235818 12 287 6.4 17.7 0.00 0.00 0.00 45 1008.0
20260505235316 12 315 8.0 17.7 0.00 0.00 0.00 45 1008.0
20260505234816 12 277 8.0 20.9 0.00 0.00 0.00 44 1008.1
20260505234316 12 331 9.7 20.9 0.00 0.00 0.00 43 1008.1
20260505232816 12 28 8.0 19.3 0.00 0.00 0.00 42 1008.0
20260505231817 12 311 8.0 25.7 0.00 0.00 0.00 44 1008.1
20260505230816 12 331 8.0 20.9 0.00 0.00 0.00 44 1008.2
20260505230317 12 343 8.0 19.3 0.00 0.00 0.00 44 1008.2
20260505225817 12 333 9.7 22.5 0.00 0.00 0.00 43 1008.3
20260505225316 12 344 8.0 22.5 0.00 0.00 0.00 42 1008.3
20260505224817 12 323 6.4 19.3 0.00 0.00 0.00 43 1008.2
20260505224318 12 32 9.7 20.9 0.00 0.00 0.00 42 1008.3
20260505223811 12 298 9.7 27.4 0.00 0.00 0.00 42 1008.4
20260505223306 12 254 9.7 27.4 0.00 0.00 0.00 41 1008.5
20260505222759 12 21 8.0 20.9 0.00 0.00 0.00 43 1008.4
20260505222254 12 347 8.0 20.9 0.00 0.00 0.00 43 1008.4
20260505221748 12 269 9.7 20.9 0.00 0.00 0.00 42 1008.4
20260505221249 12 314 11.3 24.1 0.00 0.00 0.00 41 1008.3
20260505220250 12 260 9.7 25.7 0.00 0.00 0.00 42 1008.4
20260505215748 12 316 9.7 20.9 0.00 0.00 0.00 43 1008.3
20260505214748 12 282 9.7 22.5 0.00 0.00 0.00 40 1008.4
20260505214249 12 316 9.7 24.1 0.00 0.00 0.00 41 1008.5
20260505213249 12 304 8.0 24.1 0.00 0.00 0.00 41 1008.6
20260505212247 12 319 11.3 25.7 0.00 0.00 0.00 41 1008.6
20260505211746 12 0 9.7 20.9 0.00 0.00 0.00 40 1008.5
20260505211246 12 298 11.3 27.4 0.00 0.00 0.00 40 1008.5
20260505210746 12 33 11.3 27.4 0.00 0.00 0.00 39 1008.4
20260505210246 12 330 11.3 24.1 0.00 0.00 0.00 41 1008.5
20260505205746 12 315 9.7 24.1 0.00 0.00 0.00 43 1008.5
20260505205246 12 291 8.0 22.5 0.00 0.00 0.00 40 1008.5
20260505204246 12 252 9.7 29.0 0.00 0.00 0.00 41 1008.6
20260505203236 12 301 9.7 19.3 0.00 0.00 0.00 40 1008.6
20260505202728 12 325 11.3 29.0 0.00 0.00 0.00 41 1008.7
20260505202222 12 261 12.9 29.0 0.00 0.00 0.00 40 1008.7
20260505201717 12 290 11.3 29.0 0.00 0.00 0.00 40 1008.7
20260505200705 12 302 11.3 27.4 0.00 0.00 0.00 39 1008.9
20260505200158 12 279 11.3 25.7 0.00 0.00 0.00 40 1008.9
20260505195653 12 303 12.9 25.7 0.00 0.00 0.00 39 1009.0
20260505195146 12 311 11.3 29.0 0.00 0.00 0.00 39 1008.9
20260505194136 12 309 12.9 33.8 0.00 0.00 0.00 38 1009.1
20260505193629 12 280 14.5 33.8 0.00 0.00 0.00 38 1009.0
20260505193123 12 275 12.9 29.0 0.00 0.00 0.00 38 1009.1
20260505192617 12 306 9.7 22.5 0.00 0.00 0.00 39 1008.9
20260505192110 12 340 9.7 22.5 0.00 0.00 0.00 36 1009.0
20260505191605 12 309 9.7 20.9 0.00 0.00 0.00 36 1008.9
20260505191059 12 348 12.9 32.2 0.00 0.00 0.00 36 1008.9
20260505190048 13 238 11.3 30.6 0.00 0.00 0.00 35 1009.2
20260505185540 13 335 9.7 27.4 0.00 0.00 0.00 36 1009.3
20260505185034 13 307 11.3 27.4 0.00 0.00 0.00 37 1009.1
20260505184528 13 25 12.9 27.4 0.00 0.00 0.00 38 1009.2
20260505184022 13 354 9.7 25.7 0.00 0.00 0.00 39 1009.0
20260505183517 12 288 9.7 25.7 0.00 0.00 0.00 39 1009.1
20260505182504 12 294 12.9 29.0 0.00 0.00 0.00 36 1009.0
20260505181453 13 310 11.3 24.1 0.00 0.00 0.00 37 1009.1
20260505180947 13 32 9.7 24.1 0.00 0.00 0.00 38 1008.8
20260505180442 13 35 9.7 30.6 0.00 0.00 0.00 39 1008.8
20260505175935 13 308 12.9 30.6 0.00 0.00 0.00 37 1008.7
20260505174923 13 247 11.3 27.4 0.00 0.00 0.00 36 1008.8
20260505173911 12 90 11.3 27.4 0.00 0.00 0.00 39 1008.9
20260505173404 12 271 11.3 29.0 0.00 0.00 0.00 40 1008.8
20260505172353 12 319 11.3 25.7 0.00 0.00 0.00 38 1008.8
20260505171846 12 307 11.3 25.7 0.00 0.00 0.00 38 1008.6
20260505171342 12 309 9.7 25.7 0.00 0.00 0.00 40 1008.7
20260505170324 12 63 14.5 33.8 0.00 0.00 0.00 42 1008.7
20260505165313 12 320 11.3 30.6 0.00 0.00 0.00 42 1008.6
20260505164807 12 326 11.3 25.7 0.00 0.00 0.00 43 1008.5
20260505164300 12 333 9.7 25.7 0.00 0.00 0.00 43 1008.6
20260505163755 12 317 8.0 20.9 0.00 0.00 0.00 46 1008.8
20260505162754 11 297 12.9 29.0 0.00 0.00 0.00 44 1008.9
20260505162255 11 264 9.7 20.9 0.00 0.00 0.00 46 1008.9
20260505161753 11 302 8.0 20.9 0.00 0.00 0.00 44 1008.8
20260505161254 11 320 9.7 22.5 0.00 0.00 0.00 47 1008.8
20260505160753 11 277 11.3 22.5 0.00 0.00 0.00 46 1008.7
20260505160253 11 136 11.3 20.9 0.00 0.00 0.00 45 1008.7
20260505153254 11 44 9.7 25.7 0.00 0.00 0.00 46 1008.6
20260505152254 11 317 8.0 17.7 0.00 0.00 0.00 46 1008.5
20260505151754 11 337 9.7 19.3 0.00 0.00 0.00 44 1008.5
20260505151249 11 307 11.3 24.1 0.00 0.00 0.00 44 1008.3
20260505150747 10 298 12.9 24.1 0.00 0.00 0.00 44 1008.5
20260505150245 10 345 11.3 25.7 0.00 0.00 0.00 45 1008.3
20260505140246 9 23 6.4 14.5 0.00 0.00 0.00 58 1008.6
20260505124743 8 287 3.2 8.0 0.00 0.00 0.00 66 1008.7
20260505124244 8 297 3.2 8.0 0.00 0.00 0.00 67 1008.6
20260505123744 8 314 3.2 6.4 0.00 0.00 0.00 68 1008.5
20260505122744 8 314 3.2 6.4 0.00 0.00 0.00 68 1008.8
20260505122244 8 277 4.8 9.7 0.00 0.00 0.00 68 1008.5
20260505121743 8 303 4.8 9.7 0.00 0.00 0.00 68 1008.8
20260505121237 8 292 3.2 8.0 0.00 0.00 0.00 67 1008.8
20260505120732 8 298 1.6 6.4 0.00 0.00 0.00 68 1008.6
20260505120225 8 15 1.6 3.2 0.00 0.00 0.00 67 1008.7
20260505115213 8 331 1.6 8.0 0.00 0.00 0.00 67 1008.2
20260505114707 8 127 3.2 8.0 0.00 0.00 0.00 67 1008.1
20260505113656 8 314 3.2 8.0 0.00 0.00 0.00 67 1008.8
20260505112643 8 324 4.8 9.7 0.00 0.00 0.00 66 1007.9
20260505112138 8 15 4.8 9.7 0.00 0.00 0.00 66 1007.4
20260505111632 8 311 3.2 8.0 0.00 0.00 0.00 65 1007.2
20260505110115 8 340 4.8 12.9 0.00 0.00 0.00 64 1007.1
20260505102027 10 4 8.0 17.7 0.00 0.00 0.00 57 1007.2
20260505101521 10 250 6.4 17.7 0.00 0.00 0.00 57 1007.4
20260505101014 10 283 6.4 14.5 0.00 0.00 0.00 56 1007.4
20260505100507 10 289 6.4 14.5 0.00 0.00 0.00 56 1006.9
20260505094949 10 349 6.4 11.3 0.00 0.00 0.00 55 1005.8
20260505094444 10 351 6.4 16.1 0.00 0.00 0.00 55 1005.5
20260505093938 10 30 4.8 16.1 0.00 0.00 0.00 56 1005.5
20260505093432 10 314 4.8 12.9 0.00 0.00 0.00 56 1005.5
20260505092929 10 331 6.4 17.7 0.00 0.00 0.00 55 1005.7
20260505091913 10 341 6.4 24.1 0.00 0.00 0.00 56 1005.8
20260505091408 10 283 9.7 24.1 0.00 0.00 0.00 55 1005.6
20260505090901 10 349 8.0 20.9 0.00 0.00 0.00 55 1005.8
20260505090356 10 309 6.4 20.9 0.00 0.00 0.00 56 1005.6
20260505085849 10 317 6.4 14.5 0.00 0.00 0.00 56 1005.5
20260505085343 10 305 8.0 19.3 0.00 0.00 0.00 58 1005.9
20260505084332 10 8 8.0 16.1 0.00 0.00 0.00 58 1005.1
20260505083827 10 20 9.7 20.9 0.00 0.00 0.00 59 1005.0
20260505083320 10 330 9.7 20.9 0.00 0.00 0.00 59 1005.0
20260505082812 10 333 9.7 20.9 0.00 0.00 0.00 61 1004.9
20260505082312 10 320 8.0 20.9 0.00 0.00 0.00 62 1004.8
20260505081813 10 272 8.0 19.3 0.00 0.00 0.00 62 1004.6
20260505081313 10 302 8.0 19.3 0.00 0.00 0.00 62 1004.5
20260505080813 10 326 6.4 17.7 0.00 0.00 0.00 63 1004.4
20260505080312 10 1 6.4 14.5 0.00 0.00 0.00 63 1004.1
20260505074814 10 351 6.4 12.9 0.00 0.00 0.00 62 1003.9
20260505074313 10 315 6.4 12.9 0.00 0.00 0.00 61 1003.8
20260505073813 11 317 4.8 11.3 0.00 0.00 0.00 60 1004.0
20260505073312 11 283 3.2 11.3 0.00 0.00 0.00 59 1003.9
20260505072813 11 269 3.2 8.0 0.00 0.00 0.00 59 1003.8
20260505072313 11 283 4.8 9.7 0.00 0.00 0.00 58 1003.5
20260505071312 11 275 4.8 11.3 0.00 0.00 0.00 58 1003.3
20260505070812 11 261 6.4 14.5 0.00 0.00 0.00 58 1003.3
20260505070312 11 285 6.4 14.5 0.00 0.00 0.00 57 1003.2
20260505065812 11 286 8.0 14.5 0.00 0.00 0.00 57 1003.1
20260505065306 11 276 6.4 12.9 0.00 0.00 0.00 56 1003.0
20260505064254 12 314 8.0 19.3 0.00 0.00 0.00 55 1002.8
20260505063749 12 326 6.4 12.9 0.00 0.00 0.00 55 1002.9
20260505063242 12 314 6.4 12.9 0.00 0.00 0.00 55 1002.9
20260505062737 12 331 6.4 12.9 0.00 0.00 0.00 55 1002.8
20260505062230 12 285 6.4 14.5 0.00 0.00 0.00 54 1002.9
20260505061725 12 299 8.0 22.5 0.00 0.00 0.00 53 1002.8
20260505061219 12 314 8.0 22.5 0.00 0.00 0.00 54 1002.9
20260505060714 12 312 9.7 19.3 0.00 0.00 0.00 54 1002.9
20260505060207 12 325 9.7 19.3 0.00 0.00 0.00 54 1002.8
20260505055701 12 316 8.0 19.3 0.00 0.00 0.00 54 1002.8
20260505055154 13 300 8.0 17.7 0.00 0.00 0.00 54 1002.6
20260505054648 13 310 6.4 14.5 0.00 0.00 0.00 53 1002.7
20260505054142 13 316 6.4 14.5 0.00 0.00 0.00 53 1002.7
20260505053637 13 287 6.4 14.5 0.00 0.00 0.00 52 1002.7
20260505053130 13 317 8.0 16.1 0.00 0.00 0.00 52 1002.6
20260505052623 13 327 8.0 17.7 0.00 0.00 0.00 51 1002.5
20260505052116 13 257 8.0 17.7 0.00 0.00 0.00 50 1002.5
20260505051611 13 269 8.0 19.3 0.00 0.00 0.00 50 1002.3
20260505051104 13 15 9.7 19.3 0.00 0.00 0.00 50 1002.5
20260505050559 13 288 9.7 20.9 0.00 0.00 0.00 50 1002.4
20260505041556 15 281 9.7 20.9 0.00 0.00 0.00 49 1001.9
20260505041057 15 303 8.0 17.7 0.00 0.00 0.00 49 1001.9
20260505040556 15 314 6.4 14.5 0.00 0.00 0.00 50 1001.7
20260505035556 16 304 8.0 19.3 0.00 0.00 0.00 50 1001.8
20260505035055 16 300 8.0 16.1 0.00 0.00 0.00 50 1001.9